Torna al catalogo

CZ-6A DEB

AttivoPO
NORAD 60813·DEBRIS·🇨🇳 China

Lanciato Aug 6, 2024 da Taiyuan Satellite Launch Center

Loading…

Prossimi Passaggi (prossime 24 ore)

TLE

AggiornatoSource: Space-Track

Epoca: Sep 14, 2026, 10:39 UTC

1 60813U 24140GQ  26257.44426757  .00000824  00000-0  32786-3 0  9993
2 60813  88.9164 256.2988 0024583 171.1277 189.0357 14.27600472108896

Traccia CZ-6A DEB in tempo reale con AllMySat

Download on the App Store